Location: Gudip?du
(17.0263°N, 80.8301°E)
Time: 12:20:40
(UTC+00:00)

Delta 168 - Pass Details

Date: 03 August 2024
Orbit: 392 x 1943 km, 25.3° (Epoch: 11 September)

Event Time Altitude Azimuth Distance (km) Brightness Sun altitude
Exits shadow 22:47:02 46° 238° (WSW) 993 3.6 -20.8°
Maximum altitude 22:48:01 53° 201° (SSW) 958 3.7 -20.6°
Drops below altitude 10° 22:54:37 10° 126° (SE) 2,901 6.8 -19.2°
Sets 22:58:05 0° 122° (ESE) 4,149 7.7 -18.5°
